Weather History for KGHW - October, 2012

Change the Weather History Date:

Thursday, October 18, 2012

  Actual Average Record
Temperature  
Mean Temperature 44 °F -  
Max Temperature 46 °F 55 °F 78 °F (1953)
Min Temperature 41 °F 33 °F 12 °F (1972)
Degree Days  
Heating Degree Days 22    
Moisture  
Dew Point 42 °F    
Average Humidity 96    
Maximum Humidity 100    
Minimum Humidity 87    
Precipitation  
Precipitation 0.12 in - - ()
Sea Level Pressure  
Sea Level Pressure 29.23 in    
Wind  
Wind Speed 12 mph (WNW)    
Max Wind Speed 21 mph    
Max Gust Speed 26 mph    
Visibility 5 miles    
Events Rain    
Averages and records for this station are not official NWS values.
T = Trace of Precipitation, MM = Missing Value Source: NWS Daily Summary

Daily Weather History Graph

Daily Weather History Graph

Search for Another Location

Airport or City:

Trip Planner

Search our weather history database for the weather conditions in past years. The results will help you decide how hot, cold, wet, or windy it might be!

Date:

Astronomy

Oct. 18, 2012 Rise Set
Actual Time 7:42 AM CDT 6:29 PM CDT
Civil Twilight 7:12 AM CDT 6:59 PM CDT
Nautical Twilight 6:37 AM CDT 7:33 PM CDT
Astronomical Twilight 6:03 AM CDT 8:08 PM CDT
Moon 11:36 AM CDT (10/18) 8:53 PM CDT (10/18)
Length of Visible Light 11h 47m
Length of Day
10h 47m
Waxing Crescent, 14% of the Moon is Illuminated
Oct 18
Waxing Crescent
Oct 21
First Quarter
Oct 29
Full
Nov 6
Last Quarter
Nov 13
New

Hourly Weather History & Observations

Time (CDT) Temp. Windchill Dew Point Humidity Pressure Visibility Wind Dir Wind Speed Gust Speed Precip Events Conditions
12:13 AM 42.8 °F 35.1 °F 39.2 °F 87% 29.24 in 10.0 mi West 16.1 mph 20.7 mph N/A   Overcast
12:34 AM 42.8 °F 35.1 °F 39.2 °F 87% 29.24 in 7.0 mi West 16.1 mph - N/A   Overcast
12:53 AM 42.8 °F 35.4 °F 39.2 °F 87% 29.23 in 5.0 mi West 15.0 mph - N/A   Overcast
1:13 AM 42.8 °F 36.6 °F 41.0 °F 93% 29.24 in 5.0 mi West 11.5 mph - N/A   Overcast
1:34 AM 42.8 °F 35.4 °F 41.0 °F 93% 29.22 in 5.0 mi West 15.0 mph - N/A   Overcast
1:53 AM 41.0 °F 32.8 °F 39.2 °F 93% 29.22 in 5.0 mi West 16.1 mph - N/A   Overcast
2:13 AM 41.0 °F 33.5 °F 39.2 °F 93% 29.21 in 3.0 mi West 13.8 mph - N/A   Overcast
2:34 AM 41.0 °F 34.3 °F 39.2 °F 93% 29.21 in 5.0 mi West 11.5 mph 20.7 mph N/A   Overcast
2:53 AM 41.0 °F 34.3 °F 39.2 °F 93% 29.21 in 4.0 mi West 11.5 mph 15.0 mph N/A   Overcast
3:13 AM 41.0 °F 34.3 °F 39.2 °F 93% 29.20 in 4.0 mi West 11.5 mph - N/A   Overcast
3:34 AM 41.0 °F 35.2 °F 39.2 °F 93% 29.19 in 4.0 mi West 9.2 mph - N/A   Overcast
3:53 AM 41.0 °F 34.7 °F 39.2 °F 93% 29.19 in 4.0 mi WSW 10.4 mph - N/A   Overcast
4:13 AM 41.0 °F 35.8 °F 39.2 °F 93% 29.18 in 4.0 mi West 8.1 mph - N/A   Overcast
4:34 AM 41.0 °F 35.2 °F 39.2 °F 93% 29.18 in 5.0 mi WSW 9.2 mph - N/A   Overcast
4:53 AM 41.0 °F 35.8 °F 41.0 °F 100% 29.17 in 4.0 mi West 8.1 mph - N/A   Overcast
5:13 AM 42.8 °F 38.6 °F 41.0 °F 93% 29.17 in 4.0 mi West 6.9 mph - N/A   Overcast
5:34 AM 42.8 °F 40.1 °F 41.0 °F 93% 29.16 in 3.0 mi West 4.6 mph - N/A   Overcast
5:53 AM 42.8 °F 40.1 °F 41.0 °F 93% 29.16 in 3.0 mi West 4.6 mph - N/A   Overcast
6:13 AM 42.8 °F 39.3 °F 42.8 °F 100% 29.15 in 4.0 mi WSW 5.8 mph - N/A   Overcast
6:34 AM 42.8 °F 40.1 °F 42.8 °F 100% 29.15 in 5.0 mi West 4.6 mph - N/A   Overcast
6:54 AM 42.8 °F 39.3 °F 42.8 °F 100% 29.15 in 4.0 mi West 5.8 mph - N/A   Overcast
7:13 AM 42.8 °F 40.1 °F 42.8 °F 100% 29.15 in 2.5 mi WNW 4.6 mph - N/A   Overcast
7:33 AM 42.8 °F 38.6 °F 42.8 °F 100% 29.15 in 1.5 mi WNW 6.9 mph - N/A   Overcast
7:54 AM 42.8 °F 38.0 °F 42.8 °F 100% 29.14 in 1.5 mi WNW 8.1 mph - N/A   Overcast
8:13 AM 42.8 °F 37.5 °F 42.8 °F 100% 29.14 in 0.8 mi WNW 9.2 mph - N/A   Overcast
8:33 AM 44.6 °F 40.7 °F 42.8 °F 93% 29.15 in 0.8 mi NNW 6.9 mph - N/A   Overcast
8:54 AM 44.6 °F 40.2 °F 44.6 °F 100% 29.16 in 1.0 mi NE 8.1 mph - 0.01 in   Drizzle
9:13 AM 44.6 °F 39.7 °F 42.8 °F 93% 29.17 in 0.5 mi ENE 9.2 mph - N/A   Drizzle
9:33 AM 42.8 °F 38.0 °F 42.8 °F 100% 29.18 in 1.0 mi NE 8.1 mph - N/A   Overcast
9:54 AM 44.6 °F 39.7 °F 42.8 °F 93% 29.18 in 10.0 mi ENE 9.2 mph - N/A   Overcast
10:13 AM 42.8 °F 38.0 °F 42.8 °F 100% 29.18 in 10.0 mi NE 8.1 mph - N/A   Overcast
10:33 AM 42.8 °F 38.0 °F 42.8 °F 100% 29.19 in 10.0 mi NE 8.1 mph - N/A   Overcast
10:54 AM 42.8 °F 37.5 °F 42.8 °F 100% 29.20 in 10.0 mi NNE 9.2 mph - N/A   Overcast
11:13 AM 42.8 °F 39.3 °F 41.0 °F 93% 29.20 in 10.0 mi North 5.8 mph - N/A   Overcast
11:33 AM 42.8 °F 37.5 °F 41.0 °F 93% 29.22 in 10.0 mi NNE 9.2 mph - N/A Rain Rain
11:54 AM 42.8 °F 37.0 °F 41.0 °F 93% 29.23 in 10.0 mi North 10.4 mph - 0.01 in Rain Light Rain
12:13 PM 42.8 °F 38.6 °F 42.8 °F 100% 29.24 in 10.0 mi North 6.9 mph - 0.01 in Rain Light Rain
12:33 PM 42.8 °F 37.5 °F 42.8 °F 100% 29.25 in 4.0 mi North 9.2 mph - 0.02 in   Drizzle
12:54 PM 44.6 °F 39.2 °F 42.8 °F 93% 29.26 in 3.0 mi NNW 10.4 mph - 0.03 in   Drizzle
1:13 PM 44.6 °F 38.8 °F 42.8 °F 93% 29.26 in 4.0 mi NNW 11.5 mph - N/A   Drizzle
1:33 PM 44.6 °F 38.4 °F 44.6 °F 100% 29.27 in 7.0 mi NW 12.7 mph 18.4 mph N/A   Overcast
1:53 PM 44.6 °F 38.1 °F 42.8 °F 93% 29.28 in 7.0 mi NW 13.8 mph 21.9 mph N/A   Light Drizzle
2:13 PM 44.6 °F 37.8 °F 44.6 °F 100% 29.29 in 10.0 mi NW 15.0 mph - 0.01 in Rain Rain
2:33 PM 44.6 °F 37.8 °F 44.6 °F 100% 29.29 in 10.0 mi NW 15.0 mph - 0.01 in Rain Light Rain
2:53 PM 44.6 °F 38.4 °F 44.6 °F 100% 29.30 in 10.0 mi WNW 12.7 mph 20.7 mph 0.03 in Rain Light Rain
3:13 PM 44.6 °F 39.2 °F 44.6 °F 100% 29.30 in 4.0 mi WNW 10.4 mph - 0.01 in Rain Light Rain
3:34 PM 44.6 °F 40.2 °F 44.6 °F 100% 29.30 in 10.0 mi West 8.1 mph - 0.02 in Rain Rain
3:53 PM 44.6 °F 41.4 °F 44.6 °F 100% 29.30 in 7.0 mi WSW 5.8 mph - 0.02 in   Light Drizzle
4:13 PM 44.6 °F 39.7 °F 44.6 °F 100% 29.30 in 4.0 mi WSW 9.2 mph - 0.01 in   Drizzle
4:33 PM 46.4 °F 38.7 °F 46.4 °F 100% 29.29 in 2.0 mi WNW 20.7 mph 26.5 mph 0.02 in Rain Rain
4:37 PM 46.4 °F 39.0 °F 46.4 °F 100% 29.29 in 2.0 mi WNW 19.6 mph 26.5 mph 0.02 in Rain Rain
5:41 PM 46.4 °F 39.8 °F 44.6 °F 93% 29.30 in 3.0 mi NW 16.1 mph 24.2 mph N/A   Overcast
7:21 PM 46.4 °F 39.2 °F 44.6 °F 93% 29.32 in 10.0 mi NW 18.4 mph 25.3 mph N/A   Overcast
7:41 PM 46.4 °F 39.8 °F 44.6 °F 93% 29.33 in 10.0 mi NW 16.1 mph 24.2 mph N/A   Overcast
9:21 PM 46.4 °F 39.5 °F 44.6 °F 93% 29.36 in 4.0 mi NW 17.3 mph 21.9 mph N/A   Overcast
10:01 PM 46.4 °F 39.5 °F 44.6 °F 93% 29.38 in 7.0 mi NNW 17.3 mph 23.0 mph N/A   Overcast
11:01 PM 46.4 °F 39.8 °F 44.6 °F 93% 29.40 in 3.0 mi NNW 16.1 mph - N/A   Overcast